| time (UTC) | temp C | wind direction | speed KPH | gust KPH | rain 1hr cm | rain 24hr cm | rain mn cm | humidity % | barometer mb |
| 20260504081533 | 6 | 348 | 3.2 | 12.9 | 0.00 | 0.00 | 0.00 | 62 | 1011.7 |
| 20260504044545 | 8 | 186 | 3.2 | 12.9 | 0.00 | 0.00 | 0.00 | 54 | 1012.5 |
| 20260504043047 | 8 | 234 | 3.2 | 12.9 | 0.00 | 0.00 | 0.00 | 54 | 1012.3 |
| 20260504041549 | 8 | 217 | 3.2 | 11.3 | 0.00 | 0.00 | 0.00 | 54 | 1012.4 |
| 20260504040049 | 8 | 306 | 4.8 | 16.1 | 0.00 | 0.00 | 0.00 | 54 | 1012.3 |
| 20260504034606 | 8 | 323 | 1.6 | 9.7 | 0.00 | 0.00 | 0.00 | 55 | 1012.4 |
| 20260504033051 | 8 | 138 | 1.6 | 6.4 | 0.00 | 0.00 | 0.00 | 55 | 1012.5 |
| 20260504031553 | 8 | 5 | 0.0 | 3.2 | 0.00 | 0.00 | 0.00 | 55 | 1012.5 |
| 20260504030053 | 8 | 294 | 1.6 | 8.0 | 0.00 | 0.00 | 0.00 | 54 | 1012.7 |
| 20260504024551 | 8 | 282 | 1.6 | 6.4 | 0.00 | 0.00 | 0.00 | 54 | 1012.6 |
| 20260504023052 | 8 | 152 | 0.0 | 3.2 | 0.00 | 0.00 | 0.00 | 54 | 1012.7 |
| 20260504021554 | 8 | 146 | 0.0 | 3.2 | 0.00 | 0.00 | 0.00 | 53 | 1012.7 |
| 20260504020056 | 8 | 321 | 0.0 | 1.6 | 0.00 | 0.00 | 0.00 | 52 | 1012.6 |
| 20260504014611 | 9 | 360 | 0.0 | 3.2 | 0.00 | 0.00 | 0.00 | 52 | 1012.5 |
| 20260504013103 | 10 | 72 | 0.0 | 3.2 | 0.00 | 0.00 | 0.00 | 50 | 1012.4 |
| 20260504011603 | 10 | 134 | 0.0 | 3.2 | 0.00 | 0.00 | 0.00 | 50 | 1012.4 |
| 20260504010101 | 10 | 296 | 0.0 | 3.2 | 0.00 | 0.00 | 0.00 | 47 | 1012.4 |
| 20260504004601 | 11 | 276 | 3.2 | 12.9 | 0.00 | 0.00 | 0.00 | 46 | 1012.4 |
| 20260504003101 | 11 | 198 | 1.6 | 8.0 | 0.00 | 0.00 | 0.00 | 46 | 1012.4 |
| 20260504001623 | 11 | 260 | 1.6 | 9.7 | 0.00 | 0.00 | 0.00 | 45 | 1012.4 |
| 20260504000107 | 11 | 218 | 3.2 | 12.9 | 0.00 | 0.00 | 0.00 | 44 | 1012.3 |
| 20260503234604 | 11 | 286 | 3.2 | 14.5 | 0.00 | 0.00 | 0.00 | 45 | 1012.4 |
| 20260503233104 | 11 | 239 | 3.2 | 11.3 | 0.00 | 0.00 | 0.00 | 44 | 1012.3 |
| 20260503231502 | 11 | 251 | 3.2 | 11.3 | 0.00 | 0.00 | 0.00 | 44 | 1012.3 |
| 20260503230108 | 11 | 266 | 6.4 | 16.1 | 0.00 | 0.00 | 0.00 | 43 | 1012.1 |
| 20260503224605 | 11 | 196 | 6.4 | 14.5 | 0.00 | 0.00 | 0.00 | 43 | 1012.1 |
| 20260503223002 | 12 | 360 | 3.2 | 16.1 | 0.00 | 0.00 | 0.00 | 42 | 1012.3 |
| 20260503221503 | 12 | 322 | 4.8 | 9.7 | 0.00 | 0.00 | 0.00 | 41 | 1012.2 |
| 20260503220010 | 12 | 326 | 1.6 | 14.5 | 0.00 | 0.00 | 0.00 | 43 | 1012.2 |
| 20260503214504 | 12 | 11 | 1.6 | 12.9 | 0.00 | 0.00 | 0.00 | 42 | 1012.2 |
| 20260503213009 | 12 | 113 | 0.0 | 11.3 | 0.00 | 0.00 | 0.00 | 44 | 1012.2 |
| 20260503211507 | 12 | 82 | 8.0 | 32.2 | 0.00 | 0.00 | 0.00 | 41 | 1012.1 |
| 20260503210008 | 12 | 184 | 3.2 | 9.7 | 0.00 | 0.00 | 0.00 | 43 | 1012.2 |
| 20260503204509 | 12 | 93 | 4.8 | 16.1 | 0.00 | 0.00 | 0.00 | 41 | 1012.1 |
| 20260503203020 | 13 | 9 | 8.0 | 22.5 | 0.00 | 0.00 | 0.00 | 40 | 1012.1 |
| 20260503201515 | 12 | 42 | 1.6 | 22.5 | 0.00 | 0.00 | 0.00 | 42 | 1012.4 |
| 20260503200013 | 12 | 41 | 3.2 | 17.7 | 0.00 | 0.00 | 0.00 | 42 | 1012.6 |
| 20260503194511 | 12 | 113 | 3.2 | 17.7 | 0.00 | 0.00 | 0.00 | 44 | 1012.7 |
| 20260503193013 | 11 | 126 | 4.8 | 12.9 | 0.00 | 0.00 | 0.00 | 47 | 1013.0 |
| 20260503191520 | 12 | 300 | 1.6 | 16.1 | 0.00 | 0.00 | 0.00 | 45 | 1013.2 |
| 20260503190016 | 12 | 74 | 6.4 | 12.9 | 0.00 | 0.00 | 0.00 | 42 | 1013.4 |
| 20260503184517 | 11 | 153 | 4.8 | 9.7 | 0.00 | 0.00 | 0.00 | 45 | 1013.4 |
| 20260503183028 | 11 | 326 | 3.2 | 11.3 | 0.00 | 0.00 | 0.00 | 48 | 1013.5 |
| 20260503181519 | 11 | 257 | 4.8 | 12.9 | 0.00 | 0.00 | 0.00 | 46 | 1013.5 |
| 20260503180021 | 11 | 355 | 4.8 | 12.9 | 0.00 | 0.00 | 0.00 | 44 | 1013.6 |
| 20260503174521 | 11 | 129 | 4.8 | 16.1 | 0.00 | 0.00 | 0.00 | 45 | 1013.7 |
| 20260503173024 | 11 | 271 | 4.8 | 32.2 | 0.00 | 0.00 | 0.00 | 43 | 1013.9 |
| 20260503171524 | 11 | 170 | 4.8 | 17.7 | 0.00 | 0.00 | 0.00 | 46 | 1014.2 |